EW9766 Weather Reports


time (UTC)temp
F
wind
direction
speed
knots
gust
knots
rain 1hr
in
rain 24hr
in
rain mn
in
humidity
%
barometer
mb
20260904000032 55 329 3.5 7.0 0.00 0.23 0.00 79 1011.4
20260903233031 56 357 3.5 6.1 0.00 0.24 0.00 78 1011.5
20260903231533 56 331 3.5 6.1 0.00 0.24 0.00 78 1011.6
20260903230032 57 337 3.5 8.7 0.00 0.25 0.00 75 1011.5
20260903223106 60 307 3.5 7.8 0.00 0.26 0.00 74 1011.5
20260903221530 60 277 1.7 6.1 0.00 0.27 0.00 78 1011.6
20260903220032 59 259 0.9 3.5 0.00 0.27 0.00 77 1011.7
20260903214532 59 304 1.7 5.2 0.00 0.28 0.00 77 1011.7
20260903213035 59 286 1.7 4.3 0.00 0.28 0.00 78 1011.7
20260903211536 59 283 2.6 6.1 0.00 0.28 0.00 78 1011.7
20260903210033 60 289 2.6 7.8 0.00 0.28 0.00 77 1011.7
20260903204533 60 308 4.3 9.6 0.00 0.30 0.00 79 1011.7
20260903203030 57 311 4.3 9.6 0.00 0.31 0.00 81 1011.8
20260903201535 57 300 2.6 7.0 0.00 0.32 0.00 80 1011.9
20260903200030 57 290 3.5 8.7 0.00 0.33 0.00 79 1011.9
20260903194643 59 329 4.3 8.7 0.00 0.33 0.00 78 1012.0
20260903193030 60 312 2.6 7.8 0.00 0.33 0.00 80 1012.2
20260903191531 59 353 4.3 7.8 0.00 0.33 0.00 81 1012.3
20260903190031 57 339 3.5 7.0 0.00 0.33 0.00 81 1012.5
20260903184531 55 15 3.5 6.1 0.00 0.33 0.00 81 1012.6
20260903183029 55 12 2.6 4.3 0.00 0.33 0.00 82 1012.6
20260903181535 55 319 1.7 5.2 0.00 0.33 0.00 84 1012.5
20260903180031 55 331 1.7 6.1 0.00 0.33 0.00 85 1012.6
20260903173035 53 346 3.5 6.1 0.00 0.33 0.00 88 1012.5
20260903170032 52 6 2.6 5.2 0.00 0.33 0.00 89 1012.6
20260903164606 50 307 1.7 5.2 0.00 0.33 0.00 91 1012.6
20260903161531 49 292 0.0 4.3 0.00 0.33 0.00 92 1012.6
20260903160105 49 332 0.0 3.5 0.00 0.33 0.00 92 1012.7
20260903154535 49 278 0.9 4.3 0.00 0.33 0.00 92 1012.6
20260903153029 48 196 1.7 4.3 0.00 0.33 0.00 92 1012.5
20260903150035 46 113 1.7 5.2 0.00 0.33 0.00 94 1012.6
20260903144606 46 175 2.6 6.1 0.00 0.33 0.00 95 1012.4
20260903143030 45 145 1.7 4.3 0.00 0.33 0.00 95 1012.3
20260903140044 44 155 3.5 6.1 0.00 0.33 0.00 94 1012.0
20260903134531 44 142 3.5 5.2 0.00 0.33 0.00 94 1012.0
20260903133106 44 133 1.7 5.2 0.00 0.33 0.00 94 1012.0
20260903130034 44 166 0.9 4.3 0.00 0.33 0.00 95 1011.9
20260903124529 44 165 2.6 7.0 0.00 0.33 0.00 95 1011.8
20260903121529 43 177 2.6 7.8 0.00 0.33 0.00 95 1011.8
20260903120034 44 185 4.3 7.0 0.00 0.33 0.00 95 1011.8
20260903114532 43 114 2.6 8.7 0.00 0.33 0.00 95 1011.8
20260903113036 43 145 1.7 3.5 0.00 0.33 0.00 95 1011.9
20260903110032 42 163 3.5 7.8 0.00 0.33 0.00 94 1011.5
20260903104532 42 145 3.5 7.0 0.00 0.33 0.00 94 1011.4
20260903103033 42 160 4.3 7.0 0.00 0.33 0.00 94 1011.3
20260903101530 42 149 2.6 5.2 0.00 0.33 0.00 94 1011.3
20260903100036 42 153 2.6 5.2 0.00 0.33 0.00 94 1011.4
20260903093036 42 179 2.6 7.0 0.00 0.33 0.00 94 1011.3
20260903091532 43 157 3.5 7.0 0.00 0.33 0.00 94 1011.3
20260903090036 42 143 3.5 6.1 0.00 0.33 0.00 93 1011.5
20260903084534 43 148 3.5 5.2 0.00 0.33 0.00 93 1011.5
20260903083036 43 158 3.5 6.1 0.00 0.33 0.00 93 1011.4
20260903081531 42 154 3.5 7.0 0.00 0.33 0.00 93 1011.4
20260903080142 43 156 3.5 5.2 0.00 0.33 0.00 93 1011.3
20260903074537 43 167 2.6 4.3 0.00 0.33 0.00 92 1011.2
20260903073036 43 171 2.6 4.3 0.00 0.33 0.00 92 1011.1
20260903071653 43 339 0.9 5.2 0.00 0.33 0.00 92 1011.1
20260903070035 44 202 0.0 3.5 0.00 0.33 0.00 91 1011.0
20260903063142 45 328 2.6 6.1 0.00 0.33 0.33 90 1011.0
20260903061536 46 167 2.6 5.2 0.00 0.33 0.33 90 1011.0
20260903060036 47 346 1.7 5.2 0.00 0.33 0.33 90 1010.9
20260903054531 48 316 5.2 10.4 0.00 0.33 0.33 90 1010.9
20260903053030 48 359 2.6 7.0 0.00 0.33 0.33 89 1010.9
20260903051537 49 352 2.6 7.0 0.00 0.33 0.33 88 1010.9
20260903050036 49 344 5.2 11.3 0.00 0.33 0.33 89 1010.8
20260903044605 49 16 6.1 13.0 0.00 0.33 0.33 90 1010.6
20260903043031 49 60 4.3 10.4 0.00 0.33 0.33 89 1010.4
20260903041531 49 233 6.1 18.2 0.01 0.33 0.33 91 1010.2
20260903034531 50 263 3.5 12.2 0.02 0.33 0.32 94 1010.0
20260903031536 51 234 2.6 8.7 0.06 0.32 0.31 94 1010.2
20260903030036 51 292 1.7 6.1 0.09 0.31 0.31 94 1010.1
20260903024532 52 349 2.6 5.2 0.11 0.31 0.30 94 1010.1
20260903023030 52 354 2.6 6.1 0.11 0.30 0.26 94 1010.1
20260903021532 53 260 1.7 8.7 0.07 0.26 0.22 94 1010.0
20260903020129 54 308 2.6 7.0 0.05 0.22 0.20 94 1009.5
20260903014531 54 267 0.9 4.3 0.05 0.20 0.19 93 1009.1
20260903013033 53 307 0.9 5.2 0.05 0.19 0.19 93 1009.1
20260903010037 54 301 0.9 3.5 0.07 0.17 0.15 93 1009.3
20260903004536 54 253 1.7 4.3 0.05 0.15 0.14 93 1009.4
20260903003033 54 295 1.7 5.2 0.05 0.14 0.14 92 1009.3